Year,Month,Day,Hour,Minute,Value (Times are PST for windspeed in km/hr)
2014,01,10,00,00,3.80
2014,01,10,00,01,2.70
2014,01,10,00,02,0.20
2014,01,10,00,03,2.30
2014,01,10,00,04,2.20
2014,01,10,00,05,0.00
2014,01,10,00,06,1.90
2014,01,10,00,07,2.40
2014,01,10,00,08,3.10
2014,01,10,00,09,6.40
2014,01,10,00,10,5.40
2014,01,10,00,11,2.20
2014,01,10,00,12,0.00
2014,01,10,00,13,0.00
2014,01,10,00,14,1.50
2014,01,10,00,15,4.20
2014,01,10,00,16,3.10
2014,01,10,00,17,2.30
2014,01,10,00,18,4.30
2014,01,10,00,19,3.10
2014,01,10,00,20,5.30
2014,01,10,00,21,2.60
2014,01,10,00,22,3.80
2014,01,10,00,23,0.60
2014,01,10,00,24,3.10
2014,01,10,00,25,2.30
2014,01,10,00,26,4.90
2014,01,10,00,27,6.60
2014,01,10,00,28,7.20
2014,01,10,00,29,2.50
2014,01,10,00,30,1.50
2014,01,10,00,31,1.80
2014,01,10,00,32,3.20
2014,01,10,00,33,0.30
2014,01,10,00,34,5.10
2014,01,10,00,35,6.30
2014,01,10,00,36,3.00
2014,01,10,00,37,2.90
2014,01,10,00,38,4.40
2014,01,10,00,39,7.60
2014,01,10,00,40,5.10
2014,01,10,00,41,3.10
2014,01,10,00,42,2.60
2014,01,10,00,43,1.00
2014,01,10,00,44,2.40
2014,01,10,00,45,2.20
2014,01,10,00,46,9.20
2014,01,10,00,47,15.70
2014,01,10,00,48,10.70
2014,01,10,00,49,7.30
2014,01,10,00,50,5.50
2014,01,10,00,51,6.80
2014,01,10,00,52,5.30
2014,01,10,00,53,3.20
2014,01,10,00,54,5.80
2014,01,10,00,55,1.00
2014,01,10,00,56,1.40
2014,01,10,00,57,2.40
2014,01,10,00,58,3.20
2014,01,10,00,59,3.10
2014,01,10,01,00,6.70
2014,01,10,01,01,2.50
2014,01,10,01,02,3.90
2014,01,10,01,03,1.50
2014,01,10,01,04,6.00
2014,01,10,01,05,3.80
2014,01,10,01,06,6.70
2014,01,10,01,07,3.80
2014,01,10,01,08,0.20
2014,01,10,01,09,0.00
2014,01,10,01,10,7.20
2014,01,10,01,11,6.80
2014,01,10,01,12,5.10
2014,01,10,01,13,2.90
2014,01,10,01,14,4.10
2014,01,10,01,15,4.00
2014,01,10,01,16,5.20
2014,01,10,01,17,8.00
2014,01,10,01,18,5.30
2014,01,10,01,19,3.40
2014,01,10,01,20,6.30
2014,01,10,01,21,6.60
2014,01,10,01,22,5.80
2014,01,10,01,23,6.70
2014,01,10,01,24,9.00
2014,01,10,01,25,5.40
2014,01,10,01,26,5.70
2014,01,10,01,27,4.10
2014,01,10,01,28,5.60
2014,01,10,01,29,4.80
2014,01,10,01,30,5.70
2014,01,10,01,31,8.70
2014,01,10,01,32,9.00
2014,01,10,01,33,3.80
2014,01,10,01,34,5.40
2014,01,10,01,35,5.60
2014,01,10,01,36,8.00
2014,01,10,01,37,2.00
2014,01,10,01,38,4.60
2014,01,10,01,39,5.20
2014,01,10,01,40,6.20
2014,01,10,01,41,15.40
2014,01,10,01,42,11.70
2014,01,10,01,43,9.70
2014,01,10,01,44,12.60
2014,01,10,01,45,6.40
2014,01,10,01,46,13.30
2014,01,10,01,47,7.80
2014,01,10,01,48,9.30
2014,01,10,01,49,9.10
2014,01,10,01,50,7.00
2014,01,10,01,51,12.20
2014,01,10,01,52,4.80
2014,01,10,01,53,10.50
2014,01,10,01,54,5.10
2014,01,10,01,55,4.80
2014,01,10,01,56,7.80
2014,01,10,01,57,6.00
2014,01,10,01,58,3.90
2014,01,10,01,59,6.30
2014,01,10,02,00,5.90
2014,01,10,02,01,8.90
2014,01,10,02,02,12.20
2014,01,10,02,03,7.40
2014,01,10,02,04,16.50
2014,01,10,02,05,6.90
2014,01,10,02,06,7.90
2014,01,10,02,07,5.40
2014,01,10,02,08,10.60
2014,01,10,02,09,14.00
2014,01,10,02,10,9.30
2014,01,10,02,11,8.10
2014,01,10,02,12,10.20
2014,01,10,02,13,9.40
2014,01,10,02,14,3.60
2014,01,10,02,15,3.70
2014,01,10,02,16,10.60
2014,01,10,02,17,12.70
2014,01,10,02,18,4.30
2014,01,10,02,19,4.90
2014,01,10,02,20,6.70
2014,01,10,02,21,7.40
2014,01,10,02,22,9.10
2014,01,10,02,23,4.90
2014,01,10,02,24,1.90
2014,01,10,02,25,3.90
2014,01,10,02,26,1.00
2014,01,10,02,27,2.80
2014,01,10,02,28,17.50
2014,01,10,02,29,15.20
2014,01,10,02,30,7.60
2014,01,10,02,31,3.00
2014,01,10,02,32,0.60
2014,01,10,02,33,4.00
2014,01,10,02,34,4.40
2014,01,10,02,35,2.80
2014,01,10,02,36,1.80
2014,01,10,02,37,10.00
2014,01,10,02,38,6.60
2014,01,10,02,39,4.30
2014,01,10,02,40,1.40
2014,01,10,02,41,7.30
2014,01,10,02,42,7.50
2014,01,10,02,43,6.30
2014,01,10,02,44,7.60
2014,01,10,02,45,5.60
2014,01,10,02,46,4.00
2014,01,10,02,47,2.20
2014,01,10,02,48,4.60
2014,01,10,02,49,4.50
2014,01,10,02,50,3.50
2014,01,10,02,51,2.10
2014,01,10,02,52,3.50
2014,01,10,02,53,12.10
2014,01,10,02,54,7.30
2014,01,10,02,55,5.10
2014,01,10,02,56,10.90
2014,01,10,02,57,7.40
2014,01,10,02,58,2.80
2014,01,10,02,59,5.60
2014,01,10,03,00,4.50
2014,01,10,03,01,5.60
2014,01,10,03,02,5.40
2014,01,10,03,03,4.80
2014,01,10,03,04,1.80
2014,01,10,03,05,2.90
2014,01,10,03,06,5.80
2014,01,10,03,07,7.20
2014,01,10,03,08,2.80
2014,01,10,03,09,8.40
2014,01,10,03,10,8.70
2014,01,10,03,11,5.90
2014,01,10,03,12,4.90
2014,01,10,03,13,9.60
2014,01,10,03,14,15.40
2014,01,10,03,15,5.60
2014,01,10,03,16,2.00
2014,01,10,03,17,2.90
2014,01,10,03,18,4.20
2014,01,10,03,19,2.80
2014,01,10,03,20,6.50
2014,01,10,03,21,5.50
2014,01,10,03,22,4.30
2014,01,10,03,23,3.40
2014,01,10,03,24,10.70
2014,01,10,03,25,1.50
2014,01,10,03,26,9.30
2014,01,10,03,27,15.40
2014,01,10,03,28,7.50
2014,01,10,03,29,5.50
2014,01,10,03,30,11.80
2014,01,10,03,31,5.30
2014,01,10,03,32,5.50
2014,01,10,03,33,17.70
2014,01,10,03,34,5.00
2014,01,10,03,35,5.50
2014,01,10,03,36,4.60
2014,01,10,03,37,3.90
2014,01,10,03,38,4.80
2014,01,10,03,39,1.40
2014,01,10,03,40,3.60
2014,01,10,03,41,6.60
2014,01,10,03,42,1.30
2014,01,10,03,43,3.80
2014,01,10,03,44,1.20
2014,01,10,03,45,11.40
2014,01,10,03,46,6.10
2014,01,10,03,47,3.80
2014,01,10,03,48,7.50
2014,01,10,03,49,6.70
2014,01,10,03,50,10.90
2014,01,10,03,51,6.20
2014,01,10,03,52,6.10
2014,01,10,03,53,2.70
2014,01,10,03,54,6.60
2014,01,10,03,55,7.50
2014,01,10,03,56,11.80
2014,01,10,03,57,12.20
2014,01,10,03,58,9.70
2014,01,10,03,59,4.20
2014,01,10,04,00,2.70
2014,01,10,04,01,7.40
2014,01,10,04,02,7.40
2014,01,10,04,03,4.70
2014,01,10,04,04,6.40
2014,01,10,04,05,8.00
2014,01,10,04,06,15.20
2014,01,10,04,07,6.80
2014,01,10,04,08,1.50
2014,01,10,04,09,7.10
2014,01,10,04,10,3.10
2014,01,10,04,11,6.40
2014,01,10,04,12,8.30
2014,01,10,04,13,1.00
2014,01,10,04,14,3.30
2014,01,10,04,15,4.40
2014,01,10,04,16,7.40
2014,01,10,04,17,7.30
2014,01,10,04,18,6.80
2014,01,10,04,19,5.30
2014,01,10,04,20,1.40
2014,01,10,04,21,6.60
2014,01,10,04,22,2.20
2014,01,10,04,23,6.10
2014,01,10,04,24,4.70
2014,01,10,04,25,0.00
2014,01,10,04,26,4.10
2014,01,10,04,27,3.40
2014,01,10,04,28,2.40
2014,01,10,04,29,5.30
2014,01,10,04,30,3.10
2014,01,10,04,31,6.00
2014,01,10,04,32,8.80
2014,01,10,04,33,6.00
2014,01,10,04,34,2.20
2014,01,10,04,35,1.80
2014,01,10,04,36,3.40
2014,01,10,04,37,0.20
2014,01,10,04,38,0.50
2014,01,10,04,39,5.30
2014,01,10,04,40,3.60
2014,01,10,04,41,1.10
2014,01,10,04,42,2.70
2014,01,10,04,43,2.00
2014,01,10,04,44,2.70
2014,01,10,04,45,0.60
2014,01,10,04,46,1.20
2014,01,10,04,47,3.40
2014,01,10,04,48,11.90
2014,01,10,04,49,4.30
2014,01,10,04,50,10.90
2014,01,10,04,51,6.80
2014,01,10,04,52,4.20
2014,01,10,04,53,4.70
2014,01,10,04,54,2.40
2014,01,10,04,55,5.60
2014,01,10,04,56,3.50
2014,01,10,04,57,2.50
2014,01,10,04,58,1.60
2014,01,10,04,59,0.00
2014,01,10,05,00,2.70
2014,01,10,05,01,6.50
2014,01,10,05,02,6.00
2014,01,10,05,03,4.60
2014,01,10,05,04,8.10
2014,01,10,05,05,8.90
2014,01,10,05,06,3.70
2014,01,10,05,07,1.50
2014,01,10,05,08,5.80
2014,01,10,05,09,2.60
2014,01,10,05,10,6.00
2014,01,10,05,11,4.20
2014,01,10,05,12,6.40
2014,01,10,05,13,8.10
2014,01,10,05,14,3.70
2014,01,10,05,15,3.80
2014,01,10,05,16,3.70
2014,01,10,05,17,3.00
2014,01,10,05,18,0.10
2014,01,10,05,19,2.20
2014,01,10,05,20,1.10
2014,01,10,05,21,2.30
2014,01,10,05,22,1.40
2014,01,10,05,23,3.10
2014,01,10,05,24,1.00
2014,01,10,05,25,6.00
2014,01,10,05,26,3.90
2014,01,10,05,27,2.30
2014,01,10,05,28,1.90
2014,01,10,05,29,1.50
2014,01,10,05,30,3.90
2014,01,10,05,31,5.00
2014,01,10,05,32,1.50
2014,01,10,05,33,1.40
2014,01,10,05,34,0.00
2014,01,10,05,35,3.90
2014,01,10,05,36,3.00
2014,01,10,05,37,0.10
2014,01,10,05,38,2.30
2014,01,10,05,39,4.10
2014,01,10,05,40,0.70
2014,01,10,05,41,7.80
2014,01,10,05,42,8.10
2014,01,10,05,43,3.10
2014,01,10,05,44,4.60
2014,01,10,05,45,1.40
2014,01,10,05,46,5.20
2014,01,10,05,47,5.70
2014,01,10,05,48,4.40
2014,01,10,05,49,6.00
2014,01,10,05,50,2.60
2014,01,10,05,51,3.10
2014,01,10,05,52,0.50
2014,01,10,05,53,1.50
2014,01,10,05,54,1.30
2014,01,10,05,55,4.10
2014,01,10,05,56,4.00
2014,01,10,05,57,1.40
2014,01,10,05,58,1.30
2014,01,10,05,59,4.60
2014,01,10,06,00,7.20
2014,01,10,06,01,4.20
2014,01,10,06,02,3.00
2014,01,10,06,03,2.10
2014,01,10,06,04,1.80
2014,01,10,06,05,2.60
2014,01,10,06,06,4.40
2014,01,10,06,07,5.40
2014,01,10,06,08,8.90
2014,01,10,06,09,3.40
2014,01,10,06,10,4.30
2014,01,10,06,11,11.60
2014,01,10,06,12,13.10
2014,01,10,06,13,10.30
2014,01,10,06,14,3.10
2014,01,10,06,15,2.00
2014,01,10,06,16,0.70
2014,01,10,06,17,0.00
2014,01,10,06,18,3.10
2014,01,10,06,19,4.20
2014,01,10,06,20,6.60
2014,01,10,06,21,4.20
2014,01,10,06,22,3.40
2014,01,10,06,23,4.20
2014,01,10,06,24,0.60
2014,01,10,06,25,4.30
2014,01,10,06,26,1.10
2014,01,10,06,27,3.40
2014,01,10,06,28,1.60
2014,01,10,06,29,0.50
2014,01,10,06,30,3.00
2014,01,10,06,31,2.30
2014,01,10,06,32,2.00
2014,01,10,06,33,3.50
2014,01,10,06,34,1.60
2014,01,10,06,35,3.70
2014,01,10,06,36,2.40
2014,01,10,06,37,0.00
2014,01,10,06,38,6.40
2014,01,10,06,39,7.20
2014,01,10,06,40,3.70
2014,01,10,06,41,0.80
2014,01,10,06,42,1.40
2014,01,10,06,43,3.60
2014,01,10,06,44,6.40
2014,01,10,06,45,2.00
2014,01,10,06,46,7.80
2014,01,10,06,47,3.30
2014,01,10,06,48,2.10
2014,01,10,06,49,2.40
2014,01,10,06,50,0.30
2014,01,10,06,51,2.50
2014,01,10,06,52,2.50
2014,01,10,06,53,0.80
2014,01,10,06,54,0.30
2014,01,10,06,55,0.00
2014,01,10,06,56,2.40
2014,01,10,06,57,2.60
2014,01,10,06,58,4.10
2014,01,10,06,59,3.10
2014,01,10,07,00,2.00
2014,01,10,07,01,0.00
2014,01,10,07,02,0.00
2014,01,10,07,03,0.10
2014,01,10,07,04,1.70
2014,01,10,07,05,2.70
2014,01,10,07,06,3.10
2014,01,10,07,07,2.00
2014,01,10,07,08,1.10
2014,01,10,07,09,0.60
2014,01,10,07,10,0.00
2014,01,10,07,11,0.00
2014,01,10,07,12,0.00
2014,01,10,07,13,0.00
2014,01,10,07,14,0.00
2014,01,10,07,15,0.00
2014,01,10,07,16,0.00
2014,01,10,07,17,0.00
2014,01,10,07,18,0.00
2014,01,10,07,19,0.00
2014,01,10,07,20,0.00
2014,01,10,07,21,0.00
2014,01,10,07,22,0.00
2014,01,10,07,23,0.00
2014,01,10,07,24,0.00
2014,01,10,07,25,0.00
2014,01,10,07,26,0.00
2014,01,10,07,27,0.00
2014,01,10,07,28,0.00
2014,01,10,07,29,0.00
2014,01,10,07,30,0.00
2014,01,10,07,31,0.00
2014,01,10,07,32,0.00
2014,01,10,07,33,0.00
2014,01,10,07,34,0.00
2014,01,10,07,35,0.00
2014,01,10,07,36,0.00
2014,01,10,07,37,0.00
2014,01,10,07,38,0.00
2014,01,10,07,39,0.00
2014,01,10,07,40,0.00
2014,01,10,07,41,0.00
2014,01,10,07,42,0.00
2014,01,10,07,43,0.00
2014,01,10,07,44,0.00
2014,01,10,07,45,0.00
2014,01,10,07,46,0.00
2014,01,10,07,47,0.00
2014,01,10,07,48,0.00
2014,01,10,07,49,0.00
2014,01,10,07,50,0.00
2014,01,10,07,51,0.00
2014,01,10,07,52,0.00
2014,01,10,07,53,0.00
2014,01,10,07,54,0.00
2014,01,10,07,55,0.00
2014,01,10,07,56,0.00
2014,01,10,07,57,0.00
2014,01,10,07,58,0.00
2014,01,10,07,59,0.00
2014,01,10,08,00,0.00
2014,01,10,08,01,0.00
2014,01,10,08,02,0.00
2014,01,10,08,03,0.00
2014,01,10,08,04,0.00
2014,01,10,08,05,0.00
2014,01,10,08,06,0.00
2014,01,10,08,07,0.00
2014,01,10,08,08,0.00
2014,01,10,08,09,0.00
2014,01,10,08,10,0.00
2014,01,10,08,11,0.00
2014,01,10,08,12,0.00
2014,01,10,08,13,0.00
2014,01,10,08,14,0.00
2014,01,10,08,15,0.00
2014,01,10,08,16,0.00
2014,01,10,08,17,0.00
2014,01,10,08,18,0.00
2014,01,10,08,19,0.00
2014,01,10,08,20,0.00
2014,01,10,08,21,0.00
2014,01,10,08,22,0.00
2014,01,10,08,23,0.00
2014,01,10,08,24,0.00
2014,01,10,08,25,0.00
2014,01,10,08,26,0.00
2014,01,10,08,27,0.00
2014,01,10,08,28,0.00
2014,01,10,08,29,0.00
2014,01,10,08,30,0.00
2014,01,10,08,31,0.00
2014,01,10,08,32,0.00
2014,01,10,08,33,0.00
2014,01,10,08,34,0.00
2014,01,10,08,35,0.00
2014,01,10,08,36,0.00
2014,01,10,08,37,0.00
2014,01,10,08,38,0.00
2014,01,10,08,39,0.00
2014,01,10,08,40,0.00
2014,01,10,08,41,0.00
2014,01,10,08,42,0.00
2014,01,10,08,43,0.00
2014,01,10,08,44,0.00
2014,01,10,08,45,0.00
2014,01,10,08,46,0.00
2014,01,10,08,47,0.00
2014,01,10,08,48,0.00
2014,01,10,08,49,0.00
2014,01,10,08,50,0.00
2014,01,10,08,51,0.00
2014,01,10,08,52,0.00
2014,01,10,08,53,0.00
2014,01,10,08,54,0.00
2014,01,10,08,55,0.00
2014,01,10,08,56,0.00
2014,01,10,08,57,0.00
2014,01,10,08,58,0.00
2014,01,10,08,59,0.00
2014,01,10,09,00,1.90
2014,01,10,09,01,2.40
2014,01,10,09,02,2.20
2014,01,10,09,03,1.20
2014,01,10,09,04,0.00
2014,01,10,09,05,0.00
2014,01,10,09,06,0.00
2014,01,10,09,07,0.00
2014,01,10,09,08,0.00
2014,01,10,09,09,0.00
2014,01,10,09,10,0.00
2014,01,10,09,11,0.00
2014,01,10,09,12,1.50
2014,01,10,09,13,1.50
2014,01,10,09,14,1.00
2014,01,10,09,15,0.00
2014,01,10,09,16,0.00
2014,01,10,09,17,0.00
2014,01,10,09,18,0.00
2014,01,10,09,19,0.00
2014,01,10,09,20,0.00
2014,01,10,09,21,0.00
2014,01,10,09,22,0.00
2014,01,10,09,23,0.00
2014,01,10,09,24,0.00
2014,01,10,09,25,0.00
2014,01,10,09,26,0.00
2014,01,10,09,27,0.00
2014,01,10,09,28,0.00
2014,01,10,09,29,0.00
2014,01,10,09,30,0.00
2014,01,10,09,31,0.00
2014,01,10,09,32,0.00
2014,01,10,09,33,0.00
2014,01,10,09,34,0.00
2014,01,10,09,35,0.00
2014,01,10,09,36,0.00
2014,01,10,09,37,0.00
2014,01,10,09,38,0.00
2014,01,10,09,39,0.00
2014,01,10,09,40,0.00
2014,01,10,09,41,0.00
2014,01,10,09,42,0.00
2014,01,10,09,43,0.00
2014,01,10,09,44,0.00
2014,01,10,09,45,0.30
2014,01,10,09,46,1.10
2014,01,10,09,47,0.60
2014,01,10,09,48,1.10
2014,01,10,09,49,0.50
2014,01,10,09,50,0.00
2014,01,10,09,51,0.60
2014,01,10,09,52,0.60
2014,01,10,09,53,2.10
2014,01,10,09,54,0.40
2014,01,10,09,55,0.60
2014,01,10,09,56,2.10
2014,01,10,09,57,1.50
2014,01,10,09,58,1.00
2014,01,10,09,59,0.00
2014,01,10,10,00,0.00
2014,01,10,10,01,0.00
2014,01,10,10,02,0.00
2014,01,10,10,03,0.00
2014,01,10,10,04,1.50
2014,01,10,10,05,1.40
2014,01,10,10,06,1.30
2014,01,10,10,07,0.20
2014,01,10,10,08,0.50
2014,01,10,10,09,1.60
2014,01,10,10,10,0.00
2014,01,10,10,11,0.00
2014,01,10,10,12,0.00
2014,01,10,10,13,2.20
2014,01,10,10,14,2.60
2014,01,10,10,15,4.00
2014,01,10,10,16,3.20
2014,01,10,10,17,2.10
2014,01,10,10,18,4.20
2014,01,10,10,19,2.20
2014,01,10,10,20,1.90
2014,01,10,10,21,3.20
2014,01,10,10,22,3.80
2014,01,10,10,23,3.50
2014,01,10,10,24,2.60
2014,01,10,10,25,0.20
2014,01,10,10,26,0.00
2014,01,10,10,27,0.00
2014,01,10,10,28,1.20
2014,01,10,10,29,2.70
2014,01,10,10,30,4.90
2014,01,10,10,31,4.40
2014,01,10,10,32,1.20
2014,01,10,10,33,0.10
2014,01,10,10,34,2.20
2014,01,10,10,35,0.30
2014,01,10,10,36,0.10
2014,01,10,10,37,2.00
2014,01,10,10,38,4.40
2014,01,10,10,39,0.90
2014,01,10,10,40,0.00
2014,01,10,10,41,0.00
2014,01,10,10,42,0.00
2014,01,10,10,43,0.00
2014,01,10,10,44,0.00
2014,01,10,10,45,0.30
2014,01,10,10,46,0.60
2014,01,10,10,47,0.00
2014,01,10,10,48,0.10
2014,01,10,10,49,0.00
2014,01,10,10,50,0.00
2014,01,10,10,51,0.00
2014,01,10,10,52,0.60
2014,01,10,10,53,1.50
2014,01,10,10,54,0.00
2014,01,10,10,55,0.40
2014,01,10,10,56,2.80
2014,01,10,10,57,3.10
2014,01,10,10,58,2.20
2014,01,10,10,59,3.20
2014,01,10,11,00,2.80
2014,01,10,11,01,3.10
2014,01,10,11,02,2.10
2014,01,10,11,03,1.80
2014,01,10,11,04,0.80
2014,01,10,11,05,3.40
2014,01,10,11,06,4.30
2014,01,10,11,07,2.30
2014,01,10,11,08,2.90
2014,01,10,11,09,2.00
2014,01,10,11,10,1.90
2014,01,10,11,11,3.30
2014,01,10,11,12,0.00
2014,01,10,11,13,2.00
2014,01,10,11,14,2.30
2014,01,10,11,15,0.90
2014,01,10,11,16,0.00
2014,01,10,11,17,0.00
2014,01,10,11,18,0.00
2014,01,10,11,19,0.00
2014,01,10,11,20,0.00
2014,01,10,11,21,0.00
2014,01,10,11,22,0.00
2014,01,10,11,23,0.00
2014,01,10,11,24,0.00
2014,01,10,11,25,1.80
2014,01,10,11,26,0.20
2014,01,10,11,27,0.00
2014,01,10,11,28,0.00
2014,01,10,11,29,0.60
2014,01,10,11,30,3.30
2014,01,10,11,31,1.30
2014,01,10,11,32,0.00
2014,01,10,11,33,0.40
2014,01,10,11,34,1.80
2014,01,10,11,35,1.80
2014,01,10,11,36,2.30
2014,01,10,11,37,1.10
2014,01,10,11,38,0.70
2014,01,10,11,39,3.60
2014,01,10,11,40,6.00
2014,01,10,11,41,2.40
2014,01,10,11,42,0.10
2014,01,10,11,43,3.00
2014,01,10,11,44,3.40
2014,01,10,11,45,2.10
2014,01,10,11,46,2.50
2014,01,10,11,47,1.20
2014,01,10,11,48,0.60
2014,01,10,11,49,3.90
2014,01,10,11,50,3.90
2014,01,10,11,51,0.90
2014,01,10,11,52,2.50
2014,01,10,11,53,2.30
2014,01,10,11,54,1.20
2014,01,10,11,55,0.10
2014,01,10,11,56,1.40
2014,01,10,11,57,0.60
2014,01,10,11,58,2.10
2014,01,10,11,59,1.30
2014,01,10,12,00,1.50
2014,01,10,12,01,0.00
2014,01,10,12,02,0.00
2014,01,10,12,03,1.90
2014,01,10,12,04,1.90
2014,01,10,12,05,3.80
2014,01,10,12,06,3.00
2014,01,10,12,07,1.20
2014,01,10,12,08,0.00
2014,01,10,12,09,0.00
2014,01,10,12,10,1.60
2014,01,10,12,11,1.50
2014,01,10,12,12,1.90
2014,01,10,12,13,0.20
2014,01,10,12,14,1.30
2014,01,10,12,15,2.30
2014,01,10,12,16,2.00
2014,01,10,12,17,1.60
2014,01,10,12,18,0.60
2014,01,10,12,19,2.00
2014,01,10,12,20,1.50
2014,01,10,12,21,0.50
2014,01,10,12,22,4.60
2014,01,10,12,23,2.40
2014,01,10,12,24,3.00
2014,01,10,12,25,0.80
2014,01,10,12,26,1.10
2014,01,10,12,27,0.00
2014,01,10,12,28,0.00
2014,01,10,12,29,1.10
2014,01,10,12,30,0.00
2014,01,10,12,31,0.20
2014,01,10,12,32,1.60
2014,01,10,12,33,3.10
2014,01,10,12,34,0.30
2014,01,10,12,35,1.80
2014,01,10,12,36,0.00
2014,01,10,12,37,0.00
2014,01,10,12,38,2.50
2014,01,10,12,39,2.90
2014,01,10,12,40,0.50
2014,01,10,12,41,2.20
2014,01,10,12,42,2.20
2014,01,10,12,43,1.30
2014,01,10,12,44,0.00
2014,01,10,12,45,0.00
2014,01,10,12,46,0.00
2014,01,10,12,47,0.00
2014,01,10,12,48,1.00
2014,01,10,12,49,3.00
2014,01,10,12,50,3.10
2014,01,10,12,51,3.00
2014,01,10,12,52,0.90
2014,01,10,12,53,0.00
2014,01,10,12,54,1.80
2014,01,10,12,55,1.50
2014,01,10,12,56,0.00
2014,01,10,12,57,1.10
2014,01,10,12,58,0.30
2014,01,10,12,59,2.40
2014,01,10,13,00,3.60
2014,01,10,13,01,1.00
2014,01,10,13,02,3.50
2014,01,10,13,03,2.50
2014,01,10,13,04,2.30
2014,01,10,13,05,3.70
2014,01,10,13,06,4.50
2014,01,10,13,07,1.80
2014,01,10,13,08,2.60
2014,01,10,13,09,0.20
2014,01,10,13,10,0.00
2014,01,10,13,11,1.30
2014,01,10,13,12,0.50
2014,01,10,13,13,0.50
2014,01,10,13,14,3.00
2014,01,10,13,15,1.90
2014,01,10,13,16,0.00
2014,01,10,13,17,1.00
2014,01,10,13,18,0.30
2014,01,10,13,19,0.00
2014,01,10,13,20,0.00
2014,01,10,13,21,1.70
2014,01,10,13,22,1.20
2014,01,10,13,23,0.00
2014,01,10,13,24,0.00
2014,01,10,13,25,0.00
2014,01,10,13,26,0.00
2014,01,10,13,27,0.10
2014,01,10,13,28,3.20
2014,01,10,13,29,2.30
2014,01,10,13,30,0.10
2014,01,10,13,31,0.00
2014,01,10,13,32,0.00
2014,01,10,13,33,0.00
2014,01,10,13,34,0.00
2014,01,10,13,35,0.70
2014,01,10,13,36,2.00
2014,01,10,13,37,1.80
2014,01,10,13,38,1.40
2014,01,10,13,39,0.00
2014,01,10,13,40,0.00
2014,01,10,13,41,1.10
2014,01,10,13,42,2.40
2014,01,10,13,43,2.40
2014,01,10,13,44,0.00
2014,01,10,13,45,0.20
2014,01,10,13,46,0.20
2014,01,10,13,47,0.00
2014,01,10,13,48,0.00
2014,01,10,13,49,0.10
2014,01,10,13,50,1.10
2014,01,10,13,51,2.30
2014,01,10,13,52,1.30
2014,01,10,13,53,0.00
2014,01,10,13,54,0.00
2014,01,10,13,55,0.00
2014,01,10,13,56,0.40
2014,01,10,13,57,1.90
2014,01,10,13,58,1.50
2014,01,10,13,59,0.00
2014,01,10,14,00,1.60
2014,01,10,14,01,2.50
2014,01,10,14,02,2.00
2014,01,10,14,03,0.00
2014,01,10,14,04,0.00
2014,01,10,14,05,0.00
2014,01,10,14,06,0.30
2014,01,10,14,07,1.00
2014,01,10,14,08,2.20
2014,01,10,14,09,3.30
2014,01,10,14,10,1.80
2014,01,10,14,11,2.30
2014,01,10,14,12,1.00
2014,01,10,14,13,0.40
2014,01,10,14,14,2.50
2014,01,10,14,15,2.30
2014,01,10,14,16,1.80
2014,01,10,14,17,1.40
2014,01,10,14,18,1.90
2014,01,10,14,19,1.50
2014,01,10,14,20,2.00
2014,01,10,14,21,3.50
2014,01,10,14,22,2.40
2014,01,10,14,23,1.40
2014,01,10,14,24,2.30
2014,01,10,14,25,1.10
2014,01,10,14,26,0.00
2014,01,10,14,27,3.70
2014,01,10,14,28,2.60
2014,01,10,14,29,2.50
2014,01,10,14,30,3.20
2014,01,10,14,31,0.80
2014,01,10,14,32,2.50
2014,01,10,14,33,3.00
2014,01,10,14,34,2.30
2014,01,10,14,35,0.10
2014,01,10,14,36,0.00
2014,01,10,14,37,0.10
2014,01,10,14,38,1.30
2014,01,10,14,39,2.30
2014,01,10,14,40,1.20
2014,01,10,14,41,0.00
2014,01,10,14,42,0.00
2014,01,10,14,43,0.00
2014,01,10,14,44,2.40
2014,01,10,14,45,3.50
2014,01,10,14,46,3.20
2014,01,10,14,47,2.30
2014,01,10,14,48,2.30
2014,01,10,14,49,0.70
2014,01,10,14,50,2.40
2014,01,10,14,51,1.90
2014,01,10,14,52,3.40
2014,01,10,14,53,0.60
2014,01,10,14,54,0.30
2014,01,10,14,55,2.30
2014,01,10,14,56,2.60
2014,01,10,14,57,2.00
2014,01,10,14,58,0.60
2014,01,10,14,59,1.90
2014,01,10,15,00,1.70
2014,01,10,15,01,3.90
2014,01,10,15,02,2.00
2014,01,10,15,03,1.70
2014,01,10,15,04,0.40
2014,01,10,15,05,2.50
2014,01,10,15,06,0.40
2014,01,10,15,07,2.40
2014,01,10,15,08,1.40
2014,01,10,15,09,1.70
2014,01,10,15,10,0.50
2014,01,10,15,11,2.50
2014,01,10,15,12,2.20
2014,01,10,15,13,2.00
2014,01,10,15,14,1.90
2014,01,10,15,15,1.00
2014,01,10,15,16,0.00
2014,01,10,15,17,1.60
2014,01,10,15,18,1.30
2014,01,10,15,19,1.60
2014,01,10,15,20,0.60
2014,01,10,15,21,0.10
2014,01,10,15,22,1.90
2014,01,10,15,23,0.20
2014,01,10,15,24,1.60
2014,01,10,15,25,2.30
2014,01,10,15,26,2.70
2014,01,10,15,27,2.30
2014,01,10,15,28,2.60
2014,01,10,15,29,2.60
2014,01,10,15,30,2.30
2014,01,10,15,31,3.90
2014,01,10,15,32,2.10
2014,01,10,15,33,2.50
2014,01,10,15,34,2.10
2014,01,10,15,35,2.60
2014,01,10,15,36,3.30
2014,01,10,15,37,3.50
2014,01,10,15,38,2.80
2014,01,10,15,39,0.60
2014,01,10,15,40,0.10
2014,01,10,15,41,1.70
2014,01,10,15,42,2.00
2014,01,10,15,43,0.20
2014,01,10,15,44,0.00
2014,01,10,15,45,0.00
2014,01,10,15,46,0.00
2014,01,10,15,47,0.40
2014,01,10,15,48,2.30
2014,01,10,15,49,2.40
2014,01,10,15,50,1.40
2014,01,10,15,51,1.60
2014,01,10,15,52,0.60
2014,01,10,15,53,1.50
2014,01,10,15,54,1.40
2014,01,10,15,55,0.00
2014,01,10,15,56,0.00
2014,01,10,15,57,0.00
2014,01,10,15,58,0.00
2014,01,10,15,59,0.00
2014,01,10,16,00,0.00
2014,01,10,16,01,0.00
2014,01,10,16,02,0.20
2014,01,10,16,03,0.50
2014,01,10,16,04,0.00
2014,01,10,16,05,0.00
2014,01,10,16,06,0.00
2014,01,10,16,07,0.00
2014,01,10,16,08,0.00
2014,01,10,16,09,0.00
2014,01,10,16,10,0.10
2014,01,10,16,11,0.00
2014,01,10,16,12,0.00
2014,01,10,16,13,0.00
2014,01,10,16,14,0.00
2014,01,10,16,15,0.00
2014,01,10,16,16,0.00
2014,01,10,16,17,0.00
2014,01,10,16,18,0.00
2014,01,10,16,19,0.00
2014,01,10,16,20,0.00
2014,01,10,16,21,0.00
2014,01,10,16,22,0.00
2014,01,10,16,23,0.00
2014,01,10,16,24,0.00
2014,01,10,16,25,0.00
2014,01,10,16,26,2.90
2014,01,10,16,27,1.50
2014,01,10,16,28,0.20
2014,01,10,16,29,0.00
2014,01,10,16,30,0.00
2014,01,10,16,31,1.00
2014,01,10,16,32,0.10
2014,01,10,16,33,0.00
2014,01,10,16,34,0.00
2014,01,10,16,35,0.00
2014,01,10,16,36,0.30
2014,01,10,16,37,1.50
2014,01,10,16,38,2.70
2014,01,10,16,39,3.10
2014,01,10,16,40,3.10
2014,01,10,16,41,4.00
2014,01,10,16,42,3.10
2014,01,10,16,43,2.40
2014,01,10,16,44,2.90
2014,01,10,16,45,1.70
2014,01,10,16,46,1.80
2014,01,10,16,47,1.20
2014,01,10,16,48,1.40
2014,01,10,16,49,1.90
2014,01,10,16,50,2.20
2014,01,10,16,51,2.70
2014,01,10,16,52,0.00
2014,01,10,16,53,0.20
2014,01,10,16,54,1.00
2014,01,10,16,55,0.00
2014,01,10,16,56,2.10
2014,01,10,16,57,4.00
2014,01,10,16,58,3.00
2014,01,10,16,59,2.40
2014,01,10,17,00,1.60
2014,01,10,17,01,4.10
2014,01,10,17,02,4.60
2014,01,10,17,03,1.50
2014,01,10,17,04,0.00
2014,01,10,17,05,0.00
2014,01,10,17,06,0.20
2014,01,10,17,07,2.40
2014,01,10,17,08,0.70
2014,01,10,17,09,2.20
2014,01,10,17,10,3.70
2014,01,10,17,11,4.80
2014,01,10,17,12,4.40
2014,01,10,17,13,3.50
2014,01,10,17,14,4.90
2014,01,10,17,15,3.20
2014,01,10,17,16,1.10
2014,01,10,17,17,0.90
2014,01,10,17,18,1.80
2014,01,10,17,19,3.60
2014,01,10,17,20,3.30
2014,01,10,17,21,1.40
2014,01,10,17,22,0.70
2014,01,10,17,23,2.50
2014,01,10,17,24,2.90
2014,01,10,17,25,0.00
2014,01,10,17,26,0.10
2014,01,10,17,27,4.30
2014,01,10,17,28,1.10
2014,01,10,17,29,2.70
2014,01,10,17,30,0.00
2014,01,10,17,31,3.50
2014,01,10,17,32,5.40
2014,01,10,17,33,1.70
2014,01,10,17,34,4.90
2014,01,10,17,35,3.50
2014,01,10,17,36,2.70
2014,01,10,17,37,3.50
2014,01,10,17,38,4.70
2014,01,10,17,39,6.40
2014,01,10,17,40,2.70
2014,01,10,17,41,4.70
2014,01,10,17,42,5.40
2014,01,10,17,43,3.70
2014,01,10,17,44,2.00
2014,01,10,17,45,2.20
2014,01,10,17,46,2.70
2014,01,10,17,47,5.00
2014,01,10,17,48,2.50
2014,01,10,17,49,1.70
2014,01,10,17,50,7.10
2014,01,10,17,51,3.00
2014,01,10,17,52,2.80
2014,01,10,17,53,3.40
2014,01,10,17,54,2.90
2014,01,10,17,55,2.30
2014,01,10,17,56,1.50
2014,01,10,17,57,3.30
2014,01,10,17,58,1.90
2014,01,10,17,59,4.40
2014,01,10,18,00,2.50
2014,01,10,18,01,3.20
2014,01,10,18,02,2.50
2014,01,10,18,03,6.80
2014,01,10,18,04,4.50
2014,01,10,18,05,3.00